GW1515 Weather Reports


Display with metric or nautical units.
time (UTC)temp
F
wind
direction
speed
MPH
gust
MPH
rain 1hr
in
rain 24hr
in
rain mn
in
humidity
%
barometer
mb
20260506032253 50 242 0.0 2.0 0.00 0.10 0.10 57 1010.4
20260506031749 50 172 0.0 2.0 0.00 0.10 0.10 56 1010.3
20260506031247 50 208 1.0 2.0 0.00 0.10 0.10 57 1010.0
20260506030745 50 174 1.0 2.0 0.00 0.10 0.10 59 1010.1
20260506030243 50 152 1.0 2.0 0.00 0.10 0.10 60 1010.1
20260506025739 50 151 1.0 2.0 0.00 0.10 0.10 61 1010.0
20260506025236 50 162 1.0 3.0 0.00 0.10 0.10 60 1010.0
20260506024732 50 107 0.0 1.0 0.00 0.10 0.10 59 1009.9
20260506024229 50 108 0.0 2.0 0.00 0.10 0.10 60 1009.8
20260506023720 51 51 0.0 2.0 0.00 0.10 0.10 57 1010.0
20260506023217 51 158 1.0 2.0 0.00 0.10 0.10 55 1010.1
20260506022714 51 166 0.0 2.0 0.00 0.10 0.10 53 1009.8
20260506022212 51 194 0.0 1.0 0.00 0.10 0.10 53 1009.8
20260506021709 51 193 0.0 1.0 0.00 0.10 0.10 53 1009.9
20260506021206 51 116 0.0 1.0 0.00 0.10 0.10 52 1009.6
20260506020703 51 147 0.0 2.0 0.00 0.10 0.10 52 1009.8
20260506020201 51 158 0.0 1.0 0.00 0.10 0.10 54 1009.7
20260506015658 51 164 0.0 2.0 0.00 0.10 0.10 53 1009.7
20260506015155 51 157 0.0 2.0 0.00 0.10 0.10 53 1009.6
20260506014652 51 147 0.0 1.0 0.00 0.10 0.10 52 1009.5
20260506014148 51 135 0.0 1.0 0.00 0.10 0.10 51 1009.2
20260506013646 52 133 0.0 2.0 0.00 0.10 0.10 51 1009.3
20260506013143 52 321 0.0 1.0 0.00 0.10 0.10 51 1009.2
20260506012639 52 154 0.0 2.0 0.00 0.10 0.10 51 1009.0
20260506012136 52 129 0.0 1.0 0.00 0.10 0.10 49 1009.0
20260506011634 52 205 0.0 2.0 0.00 0.10 0.10 48 1008.9
20260506011130 52 240 0.0 3.0 0.00 0.10 0.10 46 1008.9
20260506010628 52 254 0.0 2.0 0.00 0.10 0.10 48 1009.1
20260506010125 52 118 0.0 2.0 0.00 0.10 0.10 50 1009.0
20260506005622 52 113 0.0 1.0 0.00 0.10 0.10 49 1009.1
20260506005118 52 312 1.0 3.0 0.00 0.10 0.10 47 1008.7
20260506004615 53 269 0.0 2.0 0.00 0.10 0.10 47 1008.8
20260506004112 53 26 0.0 3.0 0.00 0.10 0.10 46 1008.8
20260506003609 53 347 3.0 3.0 0.00 0.10 0.10 44 1009.0
20260506003105 53 273 3.0 5.0 0.00 0.10 0.10 44 1008.7
20260506002601 53 333 3.0 7.0 0.00 0.10 0.10 43 1008.6
20260506002057 53 325 2.0 7.0 0.00 0.10 0.10 43 1008.9
20260506001553 53 312 2.0 4.0 0.00 0.10 0.10 45 1008.6
20260506001050 53 262 2.0 4.0 0.00 0.10 0.10 47 1008.6
20260506000548 53 342 1.0 3.0 0.00 0.10 0.10 47 1008.4
20260506000045 53 30 1.0 3.0 0.00 0.10 0.10 46 1008.5
20260505235543 54 303 3.0 5.0 0.00 0.10 0.10 44 1008.4
20260505235040 54 335 2.0 5.0 0.00 0.10 0.10 43 1008.5
20260505234537 54 311 2.0 3.0 0.00 0.10 0.10 45 1008.5
20260505234033 55 237 0.0 6.0 0.00 0.10 0.10 42 1008.6
20260505233531 54 262 2.0 4.0 0.00 0.10 0.10 43 1008.6
20260505233028 54 323 2.0 3.0 0.00 0.10 0.10 45 1008.8
20260505232526 55 318 2.0 5.0 0.00 0.10 0.10 41 1008.6
20260505232023 55 313 2.0 7.0 0.00 0.10 0.10 39 1008.8
20260505231520 55 278 2.0 7.0 0.00 0.10 0.10 40 1008.7
20260505231019 55 299 4.0 10.0 0.00 0.10 0.10 39 1008.7
20260505230516 55 263 2.0 9.0 0.00 0.10 0.10 40 1008.8
20260505230012 55 293 2.0 7.0 0.00 0.10 0.10 39 1008.7
20260505225509 55 277 3.0 7.0 0.00 0.10 0.10 40 1008.8
20260505225005 55 223 2.0 9.0 0.00 0.10 0.10 38 1008.9
20260505224502 55 298 3.0 5.0 0.00 0.10 0.10 39 1008.9
20260505223959 55 111 1.0 6.0 0.00 0.10 0.10 40 1008.9
20260505223456 55 291 5.0 6.0 0.00 0.10 0.10 37 1008.9
20260505222953 55 329 3.0 7.0 0.00 0.10 0.10 39 1009.1
20260505222449 55 320 4.0 9.0 0.00 0.10 0.10 40 1008.9
20260505221944 55 286 5.0 8.0 0.00 0.10 0.10 40 1009.1
20260505221442 55 262 4.0 8.0 0.00 0.10 0.10 39 1008.8
20260505220939 55 343 6.0 11.0 0.00 0.10 0.10 41 1008.7
20260505220436 56 272 2.0 3.0 0.00 0.10 0.10 38 1008.8
20260505215934 55 278 2.0 8.0 0.00 0.10 0.10 38 1009.0
20260505215432 55 210 1.0 8.0 0.00 0.10 0.10 39 1009.0
20260505214929 55 334 3.0 10.0 0.00 0.10 0.10 37 1009.0
20260505214427 55 309 1.0 4.0 0.00 0.10 0.10 40 1009.1
20260505213924 55 284 4.0 8.0 0.00 0.10 0.10 38 1009.2
20260505213422 55 269 5.0 8.0 0.00 0.10 0.10 38 1009.2
20260505212917 56 273 7.0 12.0 0.00 0.10 0.10 39 1009.3
20260505212415 55 232 5.0 7.0 0.00 0.10 0.10 41 1009.2
20260505211911 55 257 3.0 6.0 0.00 0.10 0.10 42 1009.2
20260505211409 55 237 2.0 6.0 0.00 0.10 0.10 40 1009.2
20260505210904 55 259 3.0 4.0 0.00 0.10 0.10 41 1008.9
20260505210402 55 227 4.0 10.0 0.00 0.10 0.10 40 1009.2
20260505205859 55 281 3.0 5.0 0.00 0.10 0.10 38 1009.2
20260505205357 55 187 2.0 4.0 0.00 0.10 0.10 41 1009.3
20260505204854 55 338 1.0 4.0 0.00 0.10 0.10 40 1009.4
20260505204351 55 261 1.0 4.0 0.00 0.10 0.10 40 1009.3
20260505203848 55 243 3.0 6.0 0.00 0.10 0.10 38 1009.5
20260505203345 55 341 3.0 7.0 0.00 0.10 0.10 40 1009.7
20260505202841 55 264 4.0 7.0 0.00 0.10 0.10 42 1009.5
20260505202337 55 268 5.0 7.0 0.00 0.10 0.10 39 1009.8
20260505201834 55 267 4.0 9.0 0.00 0.10 0.10 42 1009.5
20260505201332 55 277 5.0 8.0 0.00 0.10 0.10 41 1009.6
20260505200830 55 266 3.0 7.0 0.00 0.10 0.10 44 1009.6
20260505200326 55 278 3.0 10.0 0.00 0.10 0.10 42 1009.5
20260505195822 55 257 3.0 8.0 0.00 0.10 0.10 44 1009.4
20260505195319 55 277 5.0 11.0 0.00 0.10 0.10 42 1009.6
20260505194816 55 282 3.0 8.0 0.00 0.10 0.10 42 1009.4
20260505194314 55 41 0.0 10.0 0.00 0.10 0.10 44 1009.4
20260505193809 55 255 3.0 9.0 0.00 0.10 0.10 42 1009.4
20260505193307 55 278 5.0 9.0 0.00 0.10 0.10 42 1009.6
20260505192805 55 280 3.0 6.0 0.00 0.10 0.10 43 1009.6
20260505192305 56 272 5.0 7.0 0.00 0.10 0.10 43 1009.4
20260505191800 56 278 5.0 10.0 0.00 0.10 0.10 42 1009.5
20260505191258 56 241 6.0 10.0 0.00 0.10 0.10 42 1009.7
20260505190754 56 294 6.0 9.0 0.00 0.10 0.10 40 1009.7
20260505190250 56 258 6.0 9.0 0.00 0.10 0.10 39 1009.7
20260505185746 57 266 7.0 10.0 0.00 0.10 0.10 41 1009.5
20260505185243 57 273 5.0 6.0 0.00 0.10 0.10 40 1009.8
20260505184739 57 236 0.0 6.0 0.00 0.10 0.10 42 1009.4
20260505184236 57 246 3.0 4.0 0.00 0.10 0.10 43 1009.7
20260505183733 57 265 3.0 10.0 0.00 0.10 0.10 41 1009.8
20260505183230 57 263 1.0 5.0 0.00 0.10 0.10 45 1009.6
20260505182726 57 253 4.0 8.0 0.00 0.10 0.10 49 1009.5
20260505182224 57 233 5.0 8.0 0.00 0.10 0.10 46 1009.6
20260505181720 57 271 4.0 6.0 0.00 0.10 0.10 51 1009.8
20260505181218 56 263 3.0 6.0 0.00 0.10 0.10 51 1009.6
20260505180714 56 243 3.0 6.0 0.00 0.10 0.10 53 1009.5
20260505180211 56 178 0.0 5.0 0.00 0.10 0.10 56 1009.7
20260505175707 55 246 3.0 6.0 0.00 0.10 0.10 54 1009.5
20260505175203 55 228 6.0 6.0 0.00 0.10 0.10 53 1009.6
20260505174700 55 219 2.0 9.0 0.00 0.10 0.10 54 1009.6
20260505174156 55 235 2.0 8.0 0.00 0.10 0.10 53 1009.4
20260505173653 55 255 3.0 5.0 0.00 0.10 0.10 52 1009.4
20260505173150 55 283 2.0 7.0 0.00 0.10 0.10 54 1009.5
20260505172647 55 276 2.0 3.0 0.00 0.10 0.10 52 1009.6
20260505172144 55 241 2.0 6.0 0.00 0.10 0.10 52 1009.4
20260505171643 54 300 3.0 10.0 0.00 0.10 0.10 51 1009.5
20260505171141 55 282 4.0 8.0 0.00 0.10 0.10 51 1009.5
20260505170638 55 206 0.0 5.0 0.00 0.10 0.10 55 1009.2
20260505170134 55 274 2.0 7.0 0.00 0.10 0.10 54 1009.3
20260505165629 55 316 3.0 7.0 0.00 0.10 0.10 53 1009.3
20260505165126 55 304 3.0 12.0 0.00 0.10 0.10 52 1009.4
20260505164621 55 269 3.0 8.0 0.00 0.10 0.10 52 1009.4
20260505164119 56 234 2.0 7.0 0.00 0.10 0.10 56 1009.2
20260505163617 55 329 2.0 6.0 0.00 0.10 0.10 51 1009.4
20260505163114 55 278 3.0 7.0 0.00 0.10 0.10 54 1009.5
20260505162612 56 284 2.0 8.0 0.00 0.10 0.10 54 1009.3
20260505162109 56 326 4.0 7.0 0.00 0.10 0.10 52 1009.2
20260505161606 54 265 5.0 9.0 0.00 0.09 0.09 57 1009.3
20260505161103 54 344 3.0 9.0 0.00 0.09 0.09 57 1009.4
20260505160601 54 263 3.0 7.0 0.00 0.09 0.09 57 1008.9
20260505153038 52 330 1.0 3.0 0.00 0.09 0.09 67 1009.0
20260505152534 52 269 3.0 4.0 0.00 0.09 0.09 70 1009.0
20260505152030 51 231 0.0 3.0 0.00 0.09 0.09 71 1009.0
20260505151530 51 21 3.0 5.0 0.00 0.09 0.09 68 1008.7
20260505151029 51 329 0.0 4.0 0.00 0.09 0.09 75 1009.1
20260505150525 51 207 0.0 3.0 0.00 0.09 0.09 77 1009.3
20260505140450 45 286 0.0 4.0 0.00 0.09 0.09 92 1009.6
20260505124903 45 345 4.0 7.0 0.02 0.05 0.05 85 1009.1
20260505124401 45 353 7.0 7.0 0.07 0.05 0.05 84 1008.9
20260505123856 45 336 6.0 8.0 0.05 0.04 0.04 81 1008.8
20260505123353 46 331 2.0 10.0 0.12 0.04 0.04 79 1008.7
20260505122849 46 331 5.0 10.0 0.14 0.03 0.03 78 1008.8
20260505122347 47 49 3.0 9.0 0.09 0.02 0.02 76 1008.9
20260505121843 48 340 9.0 11.0 0.02 0.00 0.00 71 1009.0
20260505121340 50 324 3.0 9.0 0.00 0.00 0.00 66 1009.1
20260505120836 50 306 3.0 9.0 0.00 0.00 0.00 63 1009.0
20260505120332 50 303 3.0 9.0 0.00 0.00 0.00 65 1009.0
20260505115831 50 335 0.0 3.0 0.00 0.00 0.00 68 1008.9
20260505115329 50 344 1.0 5.0 0.00 0.00 0.00 66 1008.4
20260505114827 51 322 2.0 5.0 0.00 0.00 0.00 64 1008.0
20260505114323 51 356 3.0 8.0 0.00 0.00 0.00 63 1007.9
20260505113819 51 329 8.0 10.0 0.00 0.00 0.00 61 1007.7
20260505113316 51 277 1.0 5.0 0.00 0.00 0.00 66 1007.5
20260505112811 51 1 3.0 8.0 0.00 0.00 0.00 64 1007.2
20260505112309 51 354 3.0 6.0 0.00 0.00 0.00 62 1007.3
20260505111804 51 339 2.0 6.0 0.00 0.00 0.00 63 1007.2
20260505111300 51 311 2.0 5.0 0.00 0.00 0.00 64 1006.9
20260505110756 51 292 1.0 6.0 0.00 0.00 0.00 64 1006.6
20260505110254 51 352 3.0 5.0 0.00 0.00 0.00 66 1006.6
20260505101728 52 256 0.0 6.0 0.00 0.00 0.00 63 1006.2
20260505101224 53 320 2.0 7.0 0.00 0.00 0.00 62 1006.3
20260505100720 53 17 3.0 8.0 0.00 0.00 0.00 62 1006.2
20260505100217 53 336 3.0 7.0 0.00 0.00 0.00 62 1006.1
20260505095712 53 353 3.0 5.0 0.00 0.00 0.00 67 1006.3
20260505095211 53 4 1.0 4.0 0.00 0.00 0.00 64 1006.0
20260505094706 53 193 0.0 2.0 0.00 0.00 0.00 63 1006.0
20260505094203 54 283 0.0 2.0 0.00 0.00 0.00 63 1006.2
20260505093659 54 329 0.0 3.0 0.00 0.00 0.00 61 1006.4
20260505093156 54 268 0.0 2.0 0.00 0.00 0.00 60 1006.1
20260505092653 54 60 0.0 3.0 0.00 0.00 0.00 58 1006.4
20260505092152 55 288 3.0 4.0 0.00 0.00 0.00 58 1006.3
20260505091648 55 287 4.0 5.0 0.00 0.00 0.00 58 1006.1
20260505091147 55 243 2.0 4.0 0.00 0.00 0.00 59 1006.2
20260505090644 55 242 2.0 4.0 0.00 0.00 0.00 59 1006.0
20260505090142 55 239 1.0 3.0 0.00 0.00 0.00 60 1005.7
20260505085639 55 201 0.0 6.0 0.00 0.00 0.00 59 1005.8
20260505085137 55 238 2.0 5.0 0.00 0.00 0.00 59 1005.7
20260505084635 55 259 2.0 3.0 0.00 0.00 0.00 59 1005.3
20260505084133 55 276 2.0 5.0 0.00 0.00 0.00 59 1005.3
20260505083630 55 274 2.0 4.0 0.00 0.00 0.00 59 1005.0
20260505083126 55 251 1.0 3.0 0.00 0.00 0.00 58 1004.8
20260505082622 55 139 0.0 2.0 0.00 0.00 0.00 60 1004.5
20260505082120 55 224 0.0 3.0 0.00 0.00 0.00 60 1004.6
20260505081615 55 283 0.0 2.0 0.00 0.00 0.00 61 1004.3
20260505081114 55 235 0.0 3.0 0.00 0.00 0.00 60 1004.4
20260505080609 55 212 0.0 4.0 0.00 0.00 0.00 61 1004.2
20260505080106 54 334 0.0 2.0 0.00 0.00 0.00 63 1003.9
20260505075601 55 125 1.0 2.0 0.00 0.00 0.00 61 1003.9
20260505075058 55 269 0.0 3.0 0.00 0.00 0.00 60 1004.1
20260505074555 55 242 2.0 4.0 0.00 0.00 0.00 58 1004.2
20260505074053 55 278 0.0 3.0 0.00 0.00 0.00 59 1003.5
20260505073550 55 354 0.0 4.0 0.00 0.00 0.00 59 1003.7
20260505073049 55 274 2.0 3.0 0.00 0.00 0.00 60 1003.9
20260505072544 55 256 1.0 2.0 0.00 0.00 0.00 62 1003.5
20260505072041 55 227 0.0 2.0 0.00 0.00 0.00 61 1003.5
20260505071536 55 154 0.0 1.0 0.00 0.00 0.00 63 1003.2
20260505071035 55 164 0.0 1.0 0.00 0.00 0.00 61 1003.1
20260505070532 55 186 0.0 2.0 0.00 0.00 0.00 62 1003.1
20260505070028 55 274 0.0 3.0 0.00 0.00 0.00 61 1003.3
20260505065524 55 327 1.0 3.0 0.00 0.00 0.00 60 1003.0
20260505065020 56 7 0.0 3.0 0.00 0.00 0.00 59 1002.9
20260505064517 56 282 3.0 5.0 0.00 0.00 0.00 59 1002.9
20260505064016 56 294 1.0 4.0 0.00 0.00 0.00 59 1002.7
20260505063513 56 272 2.0 4.0 0.00 0.00 0.00 59 1002.8
20260505063008 57 334 0.0 6.0 0.00 0.00 0.00 59 1002.6
20260505062505 57 289 2.0 3.0 0.00 0.00 0.00 60 1002.6
20260505062003 56 275 3.0 5.0 0.00 0.00 0.00 61 1002.3
20260505061500 56 192 1.0 4.0 0.00 0.00 0.00 64 1002.6
20260505060957 57 264 1.0 4.0 0.00 0.00 0.00 66 1002.5
20260505060455 57 268 2.0 4.0 0.00 0.00 0.00 67 1002.6
20260505055951 57 248 2.0 6.0 0.00 0.00 0.00 68 1002.6
20260505055447 57 212 2.0 4.0 0.00 0.00 0.00 71 1002.5
20260505054944 57 237 3.0 7.0 0.00 0.00 0.00 74 1002.8
20260505054441 57 276 1.0 5.0 0.00 0.00 0.00 77 1002.5
20260505053939 57 264 2.0 7.0 0.00 0.00 0.00 79 1002.4
20260505053436 57 263 3.0 5.0 0.00 0.00 0.00 82 1002.5
20260505052932 57 255 3.0 9.0 0.00 0.00 0.00 84 1002.7
20260505052430 57 250 3.0 5.0 0.00 0.00 0.00 86 1002.6
20260505051927 58 244 3.0 5.0 0.00 0.00 0.00 86 1002.7
20260505051424 58 272 4.0 8.0 0.00 0.00 0.00 85 1002.6
20260505050922 58 257 3.0 8.0 0.00 0.00 0.00 86 1002.5
20260505050420 58 252 3.0 8.0 0.00 0.00 0.00 88 1002.1
20260505041347 58 237 2.0 3.0 0.00 0.41 0.41 89 1001.9
20260505040844 59 239 2.0 4.0 0.00 0.41 0.41 88 1001.4
20260505040342 59 233 3.0 5.0 0.00 0.41 0.41 88 1001.6
20260505035839 59 230 2.0 4.0 0.00 0.41 0.41 88 1001.5
20260505035334 59 221 3.0 4.0 0.00 0.41 0.41 87 1001.7
20260505034832 59 188 2.0 4.0 0.00 0.41 0.41 87 1001.9
20260505034328 60 220 1.0 7.0 0.00 0.41 0.41 86 1001.7
20260505033826 60 248 2.0 4.0 0.00 0.41 0.41 86 1002.0
20260505033322 60 207 4.0 6.0 0.00 0.41 0.41 86 1001.9
20260505032821 60 215 5.0 8.0 0.00 0.41 0.41 86 1001.6